Justin Jordan

Release Catalog

Item Date Publisher Price Role
Reaver Vol. 1 2020-02-12Feb. 12, 2020 Image Comics $16.99 Writer
Reaver #6 2019-12-11Dec. 11, 2019 Image Comics $3.99 Writer
Reaver #3 (2nd Printing) 2019-11-13Nov. 13, 2019 Image Comics $3.99 Writer
Reaver #5 2019-11-13Nov. 13, 2019 Image Comics $3.99 Writer
Reaver #4 2019-10-09Oct. 9, 2019 Image Comics $3.99 Writer
Reaver #2 (2nd Printing) 2019-09-11Sept. 11, 2019 Image Comics $3.99 Writer
Reaver #3 2019-09-11Sept. 11, 2019 Image Comics $3.99 Writer
The Curse of Brimstone Vol. 2: Ashes 2019-08-21Aug. 21, 2019 DC Comics $16.99 Writer
Reaver #1 (2nd Printing) 2019-08-14Aug. 14, 2019 Image Comics $3.99 Writer
Reaver #2 2019-08-14Aug. 14, 2019 Image Comics $3.99 Writer
Reaver #1 2019-07-10July 10, 2019 Image Comics $3.99 Writer
Crossed Special 2014 (Pool Party Cover C) 2019-07-03July 3, 2019 Avatar $7.99 Writer
Crossed Special 2014 (Pool Party Cover B) 2019-07-03July 3, 2019 Avatar $7.99 Writer
Crossed Special 2014 (Pool Party Cover A) 2019-07-03July 3, 2019 Avatar $7.99 Writer
Crossed Special 2014 (Pool Party Cover D) 2019-07-03July 3, 2019 Avatar $7.99 Writer
Shock Vol. 2 2019-06-26June 26, 2019 Aftershock Comics $34.99 Writer
Call of Duty: Zombies 2 2019-05-01May 1, 2019 Dark Horse Comics $17.99 Writer
The Curse of Brimstone #12 2019-03-06March 6, 2019 DC Comics $2.99 Writer
The Curse of Brimstone #11 2019-02-06Feb. 6, 2019 DC Comics $2.99 Writer
Call of Duty: Zombies 2 #4 2019-01-30Jan. 30, 2019 Dark Horse Comics $3.99 Writer
The Curse of Brimstone Annual #1 2019-01-23Jan. 23, 2019 DC Comics $4.99 Writer
The Curse of Brimstone #10 2019-01-09Jan. 9, 2019 DC Comics $2.99 Writer
Call of Duty: Zombies 2 #3 2018-12-19Dec. 19, 2018 Dark Horse Comics $3.99 Writer
The Curse of Brimstone Vol. 1: Inferno 2018-12-12Dec. 12, 2018 DC Comics $16.99 Writer
The Curse of Brimstone #9 2018-12-05Dec. 5, 2018 DC Comics $2.99 Writer
This Nightmare Kills Fascists 2018-11-28Nov. 28, 2018 A Wave Blue World $19.99 Writer
The Curse of Brimstone #8 2018-11-07Nov. 7, 2018 DC Comics $2.99 Writer
Call of Duty: Zombies 2 #2 2018-10-17Oct. 17, 2018 Dark Horse Comics $3.99 Writer
Sideways Vol. 1: Steppin' Out 2018-10-17Oct. 17, 2018 DC Comics $16.99 Writer
The Curse of Brimstone #7 (Foil Cover) 2018-10-03Oct. 3, 2018 DC Comics $2.99 Writer
The Curse of Brimstone #6 2018-09-05Sept. 5, 2018 DC Comics $2.99 Writer
Death of Love 2018-08-22Aug. 22, 2018 Image Comics $16.99 Writer
Backways Vol. 1 2018-08-01Aug. 1, 2018 Aftershock Comics $14.99 Writer
The Curse of Brimstone #5 2018-08-01Aug. 1, 2018 DC Comics $2.99 Writer
Sideways #6 2018-07-11July 11, 2018 Vertigo $2.99 Writer
The Curse of Brimstone #4 2018-07-04July 4, 2018 DC Comics $2.99 Writer
Death of Love #5 2018-06-13June 13, 2018 Image Comics $3.99 Writer
Sideways #5 2018-06-13June 13, 2018 DC Comics $2.99 Writer
The Curse of Brimstone #3 2018-06-06June 6, 2018 DC Comics $2.99 Writer
Monsters Unleashed! Vol. 2: Learning Curve 2018-05-23May 23, 2018 Marvel Comics $19.99 Writer
Death of Love #4 2018-05-16May 16, 2018 Image Comics $3.99 Writer
Backways #5 2018-05-09May 9, 2018 Aftershock Comics $3.99 Writer
Sideways #4 2018-05-09May 9, 2018 DC Comics $2.99 Writer
Curse of the Brimstone #2 2018-05-02May 2, 2018 DC Comics $2.99 Writer
Spread Vol. 5 2018-05-02May 2, 2018 Image Comics $16.99 Writer
Death of Love #3 2018-04-18April 18, 2018 Image Comics $3.99 Writer
Dark Gods Vol. 1 2018-04-11April 11, 2018 Avatar $5.99 Writer
Sideways #3 2018-04-11April 11, 2018 DC Comics $2.99 Writer
The Family Trade Vol. 1 2018-04-11April 11, 2018 Image Comics $16.99 Writer
Backways #4 2018-04-04April 4, 2018 Aftershock Comics $3.99 Writer
Curse of the Brimstone #1 2018-04-04April 4, 2018 DC Comics $2.99 Writer
Death of Love #2 2018-03-21March 21, 2018 Image Comics $3.99 Writer
Monsters Unleashed! #12 2018-03-21March 21, 2018 Marvel Comics $3.99 Writer
Sideways #2 2018-03-14March 14, 2018 Vertigo $2.99 Writer
Spread #25 (Sobreiro Cover) 2018-03-07March 7, 2018 Image Comics $3.99 Writer
Spread #25 (Strahm & Sobreiro Cover) 2018-03-07March 7, 2018 Image Comics $3.99 Writer
Backways #3 2018-02-28Feb. 28, 2018 Aftershock Comics $3.99 Writer
Monsters Unleashed! #11 2018-02-21Feb. 21, 2018 Marvel Comics $3.99 Writer
The Family Trade #5 2018-02-21Feb. 21, 2018 Image Comics $3.99 Writer
Death of Love #1 2018-02-14Feb. 14, 2018 Image Comics $3.99 Writer
Sideways #1 2018-02-14Feb. 14, 2018 DC Comics $2.99 Writer
Backways #2 (Carlini Cover) 2018-01-24Jan. 24, 2018 Aftershock Comics $3.99 Writer
Savage Things 2018-01-24Jan. 24, 2018 Vertigo $19.99 Writer
Monsters Unleashed! #10 2018-01-17Jan. 17, 2018 Marvel Comics $3.99 Writer
The Family Trade #4 2018-01-17Jan. 17, 2018 Image Comics $3.99 Writer
Backways #1 (Carlini Cover) 2017-12-20Dec. 20, 2017 Aftershock Comics $3.99 Writer
Backways #1 (Templesmith Cover) 2017-12-20Dec. 20, 2017 Aftershock Comics $3.99 Writer
Monsters Unleashed! #9 2017-12-20Dec. 20, 2017 Marvel Comics $3.99 Writer
Spread #24 2017-12-20Dec. 20, 2017 Image Comics $3.99 Writer
The Family Trade #3 2017-12-20Dec. 20, 2017 Image Comics $3.99 Writer
Call of Duty: Zombies 2017-11-15Nov. 15, 2017 Dark Horse Comics $19.99 Writer
The Family Trade #2 2017-11-15Nov. 15, 2017 Image Comics $3.99 Writer
The Planet of the Apes / The Green Lantern 2017-11-08Nov. 8, 2017 BOOM! Studios $19.99 Writer
The Spread #23 2017-11-01Nov. 1, 2017 Image Comics $3.99 Writer
Luther Strode: The Complete Series 2017-10-11Oct. 11, 2017 Image Comics $49.99 Writer
The Family Trade #1 2017-10-11Oct. 11, 2017 Image Comics $3.99 Writer
Savage Things #8 2017-10-04Oct. 4, 2017 Vertigo $3.99 Writer
Spread #22 2017-10-04Oct. 4, 2017 Image Comics $3.99 Writer
Savage Things #7 2017-09-06Sept. 6, 2017 Vertigo $3.99 Writer
Call of Duty: Zombies #6 2017-08-23Aug. 23, 2017 Dark Horse Comics $3.99 Writer
Adventure Time Comics #14 (Subscription Palmer Cover) 2017-08-16Aug. 16, 2017 BOOM! Studios $3.99 Writer
Adventure Time Comics #14 (15 Copy Oztekin Cover) 2017-08-16Aug. 16, 2017 BOOM! Studios Unknown Writer
Adventure Time Comics #14 2017-08-16Aug. 16, 2017 BOOM! Studios $3.99 Writer
Savage Things #6 2017-08-02Aug. 2, 2017 Vertigo $3.99 Writer
The Spread Vol. 4 2017-07-19July 19, 2017 Image Comics $14.99 Writer
Sombra 2017-07-12July 12, 2017 BOOM! Studios $19.99 Writer
The Planet of the Apes / The Green Lantern #6 2017-07-12July 12, 2017 BOOM! Studios $3.99 Writer
The Planet of the Apes / The Green Lantern #6 (40 Copy Massafera Cover) 2017-07-12July 12, 2017 BOOM! Studios Unknown Writer
The Planet of the Apes / The Green Lantern #6 (Unlock Vintage Figure Cover) 2017-07-12July 12, 2017 BOOM! Studios $3.99 Writer
The Planet of the Apes / The Green Lantern #6 (20 Copy Rivoche Cover) 2017-07-12July 12, 2017 BOOM! Studios Unknown Writer
The Planet of the Apes / The Green Lantern #6 (10 Copy Barrett Cover) 2017-07-12July 12, 2017 BOOM! Studios Unknown Writer
Savage Things #5 2017-07-05July 5, 2017 Vertigo $3.99 Writer
The Planet of the Apes / The Green Lantern #5 2017-06-14June 14, 2017 BOOM! Studios $3.99 Writer
The Planet of the Apes / The Green Lantern #5 (Unlock Action Figure Cover) 2017-06-14June 14, 2017 BOOM! Studios $3.99 Writer
The Planet of the Apes / The Green Lantern #5 (40 Copy Massafera Cover) 2017-06-14June 14, 2017 BOOM! Studios Unknown Writer
The Planet of the Apes / The Green Lantern #5 (20 Copy Rivoche Cover) 2017-06-14June 14, 2017 BOOM! Studios Unknown Writer
The Planet of the Apes / The Green Lantern #5 (10 Copy Tedesco Cover) 2017-06-14June 14, 2017 BOOM! Studios Unknown Writer
Savage Things #4 2017-06-07June 7, 2017 Vertigo $3.99 Writer
The Spread #21 2017-05-17May 17, 2017 Image Comics $3.99 Writer
The Planet of the Apes / The Green Lantern #4 (40 Copy Massafera Cover) 2017-05-10May 10, 2017 BOOM! Studios Unknown Writer
The Planet of the Apes / The Green Lantern #4 (Unlock Action Figure Cover) 2017-05-10May 10, 2017 BOOM! Studios $3.99 Writer
The Planet of the Apes / The Green Lantern #4 2017-05-10May 10, 2017 BOOM! Studios $3.99 Writer
The Planet of the Apes / The Green Lantern #4 (20 Copy Rivoche Cover) 2017-05-10May 10, 2017 BOOM! Studios Unknown Writer
The Planet of the Apes / The Green Lantern #4 (10 Copy Mayhew Movie Cover) 2017-05-10May 10, 2017 BOOM! Studios Unknown Writer
Savage Things #3 2017-05-03May 3, 2017 Vertigo $3.99 Writer
Call of Duty: Zombies #4 2017-04-19April 19, 2017 Dark Horse Comics $3.99 Writer
The Planet of the Apes / The Green Lantern #3 (10 Copy Gist Cover) 2017-04-12April 12, 2017 BOOM! Studios Unknown Writer
The Planet of the Apes / The Green Lantern #3 (Unlock Action Figure Cover) 2017-04-12April 12, 2017 BOOM! Studios $3.99 Writer
The Planet of the Apes / The Green Lantern #3 (20 Copy Rivoche Cover) 2017-04-12April 12, 2017 BOOM! Studios Unknown Writer
The Planet of the Apes / The Green Lantern #3 (40 Copy Massafera Cover) 2017-04-12April 12, 2017 BOOM! Studios Unknown Writer
The Planet of the Apes / The Green Lantern #3 2017-04-12April 12, 2017 BOOM! Studios $3.99 Writer
Savage Things #2 2017-04-05April 5, 2017 Vertigo $3.99 Writer
The Spread #20 2017-03-22March 22, 2017 Image Comics $3.99 Writer
John Flood 2017-03-15March 15, 2017 BOOM! Studios $19.99 Writer
John Flood 2017-03-15March 15, 2017 BOOM! Studios $19.99 Writer
The Planet of the Apes / The Green Lantern #2 (Unlock Action Figure Cover) 2017-03-08March 8, 2017 BOOM! Studios $3.99 Writer
The Planet of the Apes / The Green Lantern #2 (Perez / Ordway Cover) 2017-03-08March 8, 2017 BOOM! Studios Unknown Writer
The Planet of the Apes / The Green Lantern #2 (40 Copy Massafera Cover) 2017-03-08March 8, 2017 BOOM! Studios Unknown Writer
The Planet of the Apes / The Green Lantern #2 (20 Copy Sammelin Cover) 2017-03-08March 8, 2017 BOOM! Studios Unknown Writer
The Planet of the Apes / The Green Lantern #2 (10 Copy Rivoche Cover) 2017-03-08March 8, 2017 BOOM! Studios Unknown Writer
The Planet of the Apes / The Green Lantern #2 2017-03-08March 8, 2017 BOOM! Studios $3.99 Writer
Call of Duty: Zombies #3 2017-03-01March 1, 2017 Dark Horse Comics $3.99 Writer
Savage Things #1 2017-03-01March 1, 2017 Vertigo $3.99 Writer
The Spread #19 2017-02-15Feb. 15, 2017 Image Comics $3.99 Writer
The Planet of the Apes / The Green Lantern #1 (50 Copy Massafera Cover) 2017-02-01Feb. 1, 2017 BOOM! Studios Unknown Writer
The Planet of the Apes / The Green Lantern #1 (25 Copy Rivoche Silver Age Cover) 2017-02-01Feb. 1, 2017 BOOM! Studios Unknown Writer
The Planet of the Apes / The Green Lantern #1 (15 Copy Morris Movie Cover) 2017-02-01Feb. 1, 2017 BOOM! Studios Unknown Writer
The Planet of the Apes / The Green Lantern #1 (FOC Perez Ordway Connect Cover) 2017-02-01Feb. 1, 2017 BOOM! Studios $3.99 Writer
The Planet of the Apes / The Green Lantern #1 2017-02-01Feb. 1, 2017 BOOM! Studios $3.99 Writer
The Planet of the Apes / The Green Lantern #1 (Unlock Action Figure Cover) 2017-02-01Feb. 1, 2017 BOOM! Studios $3.99 Writer
Call of Duty: Zombies #2 2017-01-11Jan. 11, 2017 Dark Horse Comics $3.99 Writer
Evil Ernie: Godeater #5 (10 Copy B&W Cover) 2017-01-11Jan. 11, 2017 Dynamite Entertainment Unknown Writer
Evil Ernie: Godeater #5 (Templesmith Cover) 2017-01-11Jan. 11, 2017 Dynamite Entertainment $4.99 Writer
Evil Ernie: Godeater #5 (Parrillo Cover) 2017-01-11Jan. 11, 2017 Dynamite Entertainment $4.99 Writer
The Spread #18 2017-01-11Jan. 11, 2017 Image Comics $3.99 Writer
The Spread Vol. 3: No Safe Place 2016-12-07Dec. 7, 2016 Image Comics $14.99 Writer
Evil Ernie: Godeater #4 (10 Copy B&W Cover) 2016-11-23Nov. 23, 2016 Dynamite Entertainment Unknown Writer
Evil Ernie: Godeater #4 (Parrillo Cover) 2016-11-23Nov. 23, 2016 Dynamite Entertainment $4.99 Writer
Evil Ernie: Godeater #4 (Strahm Cover) 2016-11-23Nov. 23, 2016 Dynamite Entertainment $4.99 Writer
Call of Duty: Zombies #1 2016-10-26Oct. 26, 2016 Dark Horse Comics $3.99 Writer
Sombra #4 (Spanish Language) 2016-10-26Oct. 26, 2016 BOOM! Studios $3.99 Writer
Sombra #4 2016-10-26Oct. 26, 2016 BOOM! Studios $3.99 Writer
The Spread #17 (Bivens & Sobreiro Cover) 2016-10-19Oct. 19, 2016 Image Comics $3.99 Writer
The Spread #17 (Strahm & Sobreiro Cover) 2016-10-19Oct. 19, 2016 Image Comics $3.99 Writer
Evil Ernie: Godeater #3 (Razek Cover) 2016-10-05Oct. 5, 2016 Dynamite Entertainment $4.99 Writer
Evil Ernie: Godeater #3 (Parrillo Cover) 2016-10-05Oct. 5, 2016 Dynamite Entertainment $4.99 Writer
Evil Ernie: Godeater #3 (10 Copy B&W Cover) 2016-10-05Oct. 5, 2016 Dynamite Entertainment Unknown Writer
Sombra #3 2016-09-28Sept. 28, 2016 BOOM! Studios $3.99 Writer
Crossed Vol. 11 2016-09-14Sept. 14, 2016 Avatar $19.99 Writer
The Spread #16 (Bivens & Sobreiro Cover) 2016-09-14Sept. 14, 2016 Image Comics $3.99 Writer
The Spread #16 (Strahm & Sobreiro Cover) 2016-09-14Sept. 14, 2016 Image Comics $3.99 Writer
Evil Ernie: Godeater #2 (10 Copy B&W Cover) 2016-09-07Sept. 7, 2016 Dynamite Entertainment Unknown Writer
Evil Ernie: Godeater #2 (Strahm Cover) 2016-09-07Sept. 7, 2016 Dynamite Entertainment $4.99 Writer
Evil Ernie: Godeater #2 (Parrillo Cover) 2016-09-07Sept. 7, 2016 Dynamite Entertainment $4.99 Writer
Sombra #2 2016-08-24Aug. 24, 2016 BOOM! Studios $3.99 Writer
The Spread #15 (Strahm & Sobreiro Cover) 2016-08-10Aug. 10, 2016 Image Comics $3.99 Writer
The Spread #15 (Bivens & Sobreiro Cover) 2016-08-10Aug. 10, 2016 Image Comics $3.99 Writer
Evil Ernie: Godeater #1 (Adams Subscription Cover) 2016-08-03Aug. 3, 2016 Dynamite Entertainment $4.99 Writer
Evil Ernie: Godeater #1 (Parrillo Cover) 2016-08-03Aug. 3, 2016 Dynamite Entertainment $4.99 Writer
Evil Ernie: Godeater #1 (20 Copy Templesmith Cover) 2016-08-03Aug. 3, 2016 Dynamite Entertainment Unknown Writer
Evil Ernie: Godeater #1 (10 Copy Worley Cover) 2016-08-03Aug. 3, 2016 Dynamite Entertainment Unknown Writer
Evil Ernie: Godeater #1 (Templesmith Cover) 2016-08-03Aug. 3, 2016 Dynamite Entertainment $4.99 Writer
Sombra #1 (FOC Brunner Renzi Cover) 2016-07-20July 20, 2016 BOOM! Studios Unknown Writer
Sombra #1 2016-07-20July 20, 2016 BOOM! Studios $3.99 Writer
Sombra #1 (Spanish Language Cover) 2016-07-20July 20, 2016 BOOM! Studios $3.99 Writer
Strayer #5 (10 Copy Wilfredo Torres Cover) 2016-07-13July 13, 2016 Aftershock Comics Unknown Writer
Strayer #5 2016-07-13July 13, 2016 Aftershock Comics $3.99 Writer
The Legacy of Luther Strode Vol. 3 2016-07-06July 6, 2016 Image Comics $17.99 Writer
The Spread #14 (Strahm & Sobreiro Cover) 2016-07-06July 6, 2016 Image Comics $3.99 Writer
The Spread #14 (Bivens & Sobreiro Cover) 2016-07-06July 6, 2016 Image Comics $3.99 Writer
Strayer #4 2016-05-25May 25, 2016 Aftershock Comics $3.99 Writer
The Legacy of Luther Strode #6 2016-05-25May 25, 2016 Image Comics $3.50 Writer
Strayer #3 2016-03-30March 30, 2016 Aftershock Comics $3.99 Writer
The Legacy of Luther Strode #5 2016-03-16March 16, 2016 Image Comics $3.50 Writer
Strayer #2 2016-02-24Feb. 24, 2016 Aftershock Comics $3.99 Writer
The Spread #13 (Strahm Cover) 2016-02-10Feb. 10, 2016 Image Comics $3.50 Writer
The Spread #13 (Sobreiro Cover) 2016-02-10Feb. 10, 2016 Image Comics $3.50 Writer
Strayer #1 (10 Copy Cully Hamner Cover) 2016-01-27Jan. 27, 2016 Aftershock Comics Unknown Writer
Strayer #1 2016-01-27Jan. 27, 2016 Aftershock Comics $3.99 Writer
The Legacy of Luther Strode #4 2016-01-20Jan. 20, 2016 Image Comics $3.50 Writer
John Flood #6 2016-01-13Jan. 13, 2016 BOOM! Studios $3.99 Writer
The Spread #12 (Strahm & Sobreiro Cover) 2016-01-13Jan. 13, 2016 Image Comics $3.50 Writer
Deep State Vol. 2 2015-12-23Dec. 23, 2015 BOOM! Studios $14.99 Writer
Eerie Comics #8 2015-12-09Dec. 9, 2015 Dark Horse Comics $3.99 Writer
John Flood #5 2015-12-02Dec. 2, 2015 BOOM! Studios $3.99 Writer
The Spread Vol. 2: Children's Crusade 2015-11-25Nov. 25, 2015 Image Comics $14.99 Writer
The Spread Vol. 2: The Children's Crusade 2015-11-25Nov. 25, 2015 Image Comics $14.99 Writer
The Spread Vol. 2: Children's Crusade 2015-11-25Nov. 25, 2015 Image Comics $14.99 Writer
John Flood #4 2015-11-04Nov. 4, 2015 BOOM! Studios $3.99 Writer
The Spread #11 2015-10-28Oct. 28, 2015 Image Comics $3.50 Writer
John Flood #3 2015-10-07Oct. 7, 2015 BOOM! Studios $3.99 Writer
The Spread #10 2015-09-30Sept. 30, 2015 Image Comics $3.50 Writer
Archer & Armstrong Vol. 7: One Percent and Other Tales 2015-09-16Sept. 16, 2015 Valiant $14.99 Writer
The Legacy of Luther Strode #3 2015-09-09Sept. 9, 2015 Image Comics $3.50 Writer
John Flood #2 2015-09-02Sept. 2, 2015 BOOM! Studios $3.99 Writer
The Spread #9 2015-08-26Aug. 26, 2015 Image Comics $3.50 Writer
Green Lantern: New Guardians Vol. 6: Storming the Gates 2015-08-19Aug. 19, 2015 DC Comics $14.99 Writer
Dark Gods Vol. 1 2015-08-12Aug. 12, 2015 Avatar $19.99 Writer
Dark Gods Vol. 1 2015-08-12Aug. 12, 2015 Avatar $19.99 Writer
John Flood #1 2015-08-05Aug. 5, 2015 BOOM! Studios $3.99 Writer
John Flood #1 (10 Year 10 Copy Guillory Cover) 2015-08-05Aug. 5, 2015 BOOM! Studios Unknown Writer
John Flood #1 (20 Copy Pitarra Cover) 2015-08-05Aug. 5, 2015 BOOM! Studios Unknown Writer
Deep State #8 2015-07-29July 29, 2015 BOOM! Studios $3.99 Writer
Crossed Vol. 13 2015-07-08July 8, 2015 Avatar $27.99 Writer
Deep State #7 2015-06-24June 24, 2015 BOOM! Studios $3.99 Writer
The Legacy of Luther Strode #2 2015-06-24June 24, 2015 Image Comics $3.50 Writer
The Spread #8 2015-06-24June 24, 2015 Image Comics $3.50 Writer
Dark Gods #6 (Deity Cover) 2015-05-27May 27, 2015 Avatar $3.99 Writer
Dark Gods #6 2015-05-27May 27, 2015 Avatar $3.99 Writer
Dark Gods #6 (Wrap Cover) 2015-05-27May 27, 2015 Avatar $3.99 Writer
Dark Gods #6 (Siren Cover) 2015-05-27May 27, 2015 Avatar $3.99 Writer
Dark Gods #6 (Nightmare Retailer Cover) 2015-05-27May 27, 2015 Avatar Unknown Writer
Deep State #6 2015-05-13May 13, 2015 BOOM! Studios $3.99 Writer
The Spread #7 (10 Copy Adams Cover) 2015-04-29April 29, 2015 Image Comics Unknown Writer
The Spread #7 (Cobb Cover) 2015-04-29April 29, 2015 Image Comics $3.50 Writer
The Spread #7 (Strahm Cover) 2015-04-29April 29, 2015 Image Comics $3.50 Writer
Dark Gods #5 (Wrap Cover) 2015-04-15April 15, 2015 Avatar $3.99 Writer
Dark Gods #5 2015-04-15April 15, 2015 Avatar $3.99 Writer
Dark Gods #5 (Deity Cover) 2015-04-15April 15, 2015 Avatar $3.99 Writer
Dark Gods #5 (Nightmare Retailer Cover) 2015-04-15April 15, 2015 Avatar Unknown Writer
Dark Gods #5 (Siren Cover) 2015-04-15April 15, 2015 Avatar $3.99 Writer
The Spread Vol. 1: No Hope 2015-04-15April 15, 2015 Image Comics $14.99 Writer
The Spread Vol. 1: No Hope 2015-04-15April 15, 2015 Image Comics $14.99 Writer
The Spread Vol. 1: No Hope 2015-04-15April 15, 2015 Image Comics $14.99 Writer
Deep State #5 (15 Copy Shalvey Cover) 2015-04-08April 8, 2015 BOOM! Studios Unknown Writer
Deep State #5 2015-04-08April 8, 2015 BOOM! Studios $3.99 Writer
The Legacy of Luther Strode #1 2015-04-08April 8, 2015 Image Comics $3.99 Writer
Deep State Vol. 1 2015-04-01April 1, 2015 BOOM! Studios $9.99 Writer
Deep State Vol. 1 2015-04-01April 1, 2015 BOOM! Studios $9.99 Writer
Green Lantern: New Guardians #40 2015-03-18March 18, 2015 DC Comics $3.99 Writer
The Spread #6 2015-03-18March 18, 2015 Image Comics $3.50 Writer
Dark Gods #4 (Nightmare Retailer Cover) 2015-02-25Feb. 25, 2015 Avatar Unknown Writer
Dark Gods #4 2015-02-25Feb. 25, 2015 Avatar $3.99 Writer
Dark Gods #4 (Siren Cover) 2015-02-25Feb. 25, 2015 Avatar $3.99 Writer
Dark Gods #4 (Wrap Cover) 2015-02-25Feb. 25, 2015 Avatar $3.99 Writer
Dark Gods #4 (Deity Cover) 2015-02-25Feb. 25, 2015 Avatar $3.99 Writer
Green Lantern: New Guardians Vol. 5: Godkillers 2015-02-18Feb. 18, 2015 DC Comics $16.99 Writer
Green Lantern: New Guardians #39 2015-02-18Feb. 18, 2015 DC Comics $2.99 Writer
Deep State #4 (15 Copy Trakhanov Cover) 2015-02-11Feb. 11, 2015 BOOM! Studios Unknown Writer
Deep State #4 2015-02-11Feb. 11, 2015 BOOM! Studios $3.99 Writer
Dark Gods #1 (Serpent Cover) 2015-01-28Jan. 28, 2015 Avatar $5.99 Writer
Dark Gods #3 (Nightmare Retailer Cover) 2015-01-21Jan. 21, 2015 Avatar Unknown Writer
Dark Gods #3 (Wrap Cover) 2015-01-21Jan. 21, 2015 Avatar $3.99 Writer
Dark Gods #3 (Siren Cover) 2015-01-21Jan. 21, 2015 Avatar $3.99 Writer
Dark Gods #3 (Deity Cover) 2015-01-21Jan. 21, 2015 Avatar $3.99 Writer
Dark Gods #3 2015-01-21Jan. 21, 2015 Avatar $3.99 Writer
Deep State #2 (2nd Printing) 2015-01-21Jan. 21, 2015 BOOM! Studios $3.99 Writer
Deep State #1 (3rd Printing) 2015-01-21Jan. 21, 2015 BOOM! Studios $3.99 Writer
Green Lantern: New Guardians #38 2015-01-21Jan. 21, 2015 DC Comics $2.99 Writer
The Spread #5 2015-01-21Jan. 21, 2015 Image Comics $3.50 Writer
Crossed Vol. 11: Badlands 2015-01-14Jan. 14, 2015 Avatar $19.99 Writer
Crossed Vol. 11: Badlands 2015-01-14Jan. 14, 2015 Avatar $27.99 Writer
Deep State #3 2015-01-14Jan. 14, 2015 BOOM! Studios $3.99 Writer
Deep State #3 (15 Copy Trakhanov Cover) 2015-01-14Jan. 14, 2015 BOOM! Studios Unknown Writer
Deep State #1 (2nd Printing) 2014-12-17Dec. 17, 2014 BOOM! Studios $3.99 Writer
Green Lantern: New Guardians #37 (Godhead) 2014-12-17Dec. 17, 2014 DC Comics $2.99 Writer
Deep State #2 2014-12-10Dec. 10, 2014 BOOM! Studios $3.99 Writer
Deep State #2 (15 Copy Trakhanov Cover) 2014-12-10Dec. 10, 2014 BOOM! Studios Unknown Writer
Dark Gods #2 (Siren Cover) 2014-12-03Dec. 3, 2014 Avatar $3.99 Writer
Dark Gods #2 (Wrap Cover) 2014-12-03Dec. 3, 2014 Avatar $3.99 Writer
Dark Gods #2 2014-12-03Dec. 3, 2014 Avatar $3.99 Writer
Dark Gods #2 (Deity Cover) 2014-12-03Dec. 3, 2014 Avatar $3.99 Writer
Dark Gods #2 (Nightmare Cover) 2014-12-03Dec. 3, 2014 Avatar Unknown Writer
Green Lantern: New Guardians #36 2014-11-19Nov. 19, 2014 DC Comics $2.99 Writer
Deep State #1 2014-11-12Nov. 12, 2014 BOOM! Studios $3.99 Writer
Deep State #1 (15 Copy Cover) 2014-11-12Nov. 12, 2014 BOOM! Studios Unknown Writer
Shadowman Vol. 1 2014-11-12Nov. 12, 2014 Valiant $39.99 Writer
The Spread #4 2014-11-05Nov. 5, 2014 Image Comics $3.50 Writer
Crossed 2014 Special (Pool Party Cover) 2014-10-29Oct. 29, 2014 Avatar $29.99 Writer
Dark Gods #1 (Deity Cover) 2014-10-29Oct. 29, 2014 Avatar $3.99 Writer
Dark Gods #1 (Wrap Cover) 2014-10-29Oct. 29, 2014 Avatar $3.99 Writer
Dark Gods #1 (Nightmare Retailer Cover) 2014-10-29Oct. 29, 2014 Avatar Unknown Writer
Dark Gods #1 (Siren Cover) 2014-10-29Oct. 29, 2014 Avatar $3.99 Writer
Dark Gods #1 2014-10-29Oct. 29, 2014 Avatar $3.99 Writer
Crossed 2014 Special 2014-10-22Oct. 22, 2014 Avatar $5.99 Writer
Crossed 2014 Special (Wrap Cover) 2014-10-22Oct. 22, 2014 Avatar $5.99 Writer
Crossed 2014 Special (Torture Cover) 2014-10-22Oct. 22, 2014 Avatar $5.99 Writer
Crossed 2014 Special (Red Crossed Cover) 2014-10-22Oct. 22, 2014 Avatar Unknown Writer
Green Lantern: New Guardians #35 2014-10-15Oct. 15, 2014 DC Comics $2.99 Writer
Crossed: Badlands #61 2014-09-17Sept. 17, 2014 Avatar $3.99 Writer
Crossed: Badlands #61 (Fatal Fantasy Cover) 2014-09-17Sept. 17, 2014 Avatar $3.99 Writer
Crossed: Badlands #61 (Wrap Cover) 2014-09-17Sept. 17, 2014 Avatar $3.99 Writer
Crossed: Badlands #61 (Torture Cover) 2014-09-17Sept. 17, 2014 Avatar $3.99 Writer
Green Lantern: New Guardians - Future's End #1 (Standard Cover) 2014-09-17Sept. 17, 2014 DC Comics $2.99 Writer
Green Lantern: New Guardians - Future's End #1 2014-09-17Sept. 17, 2014 DC Comics $3.99 Writer
Crossed: Badlands #61 (Red Crossed Cover) 2014-09-10Sept. 10, 2014 Avatar Unknown Writer
The Spread #1 (3rd Printing) 2014-09-10Sept. 10, 2014 Image Comics $3.50 Writer
The Spread #3 2014-09-10Sept. 10, 2014 Image Comics $3.50 Writer
The Spread #2 (2nd Printing) 2014-09-10Sept. 10, 2014 Image Comics $3.50 Writer
Crossed: Badlands #60 (Red Crossed Cover) 2014-09-03Sept. 3, 2014 Avatar Unknown Writer
Crossed: Badlands #60 (Wrap Cover) 2014-09-03Sept. 3, 2014 Avatar $3.99 Writer
Crossed: Badlands #60 (Torture Cover) 2014-09-03Sept. 3, 2014 Avatar $3.99 Writer
Crossed: Badlands #60 (Fatal Fantasy Cover) 2014-09-03Sept. 3, 2014 Avatar $3.99 Writer
Crossed: Badlands #60 2014-09-03Sept. 3, 2014 Avatar $3.99 Writer
Green Lantern: New Guardians Vol. 4: Gods & Monsters 2014-08-27Aug. 27, 2014 DC Comics $16.99 Writer
Green Lantern: New Guardians #34 2014-08-20Aug. 20, 2014 DC Comics $2.99 Writer
Crossed: Badlands #59 2014-08-13Aug. 13, 2014 Avatar $3.99 Writer
Crossed: Badlands #59 (Torture Cover) 2014-08-13Aug. 13, 2014 Avatar $3.99 Writer
Crossed: Badlands #59 (Fatal Fantasy Cover) 2014-08-13Aug. 13, 2014 Avatar $3.99 Writer
Crossed: Badlands #59 (Wrap Cover) 2014-08-13Aug. 13, 2014 Avatar $3.99 Writer
The Spread #2 2014-08-06Aug. 6, 2014 Image Comics $3.50 Writer
Crossed: Badlands #58 2014-07-30July 30, 2014 Avatar $3.99 Writer
Crossed: Badlands #58 (Wrap Cover) 2014-07-30July 30, 2014 Avatar $3.99 Writer
Crossed: Badlands #58 (Torture Cover) 2014-07-30July 30, 2014 Avatar $3.99 Writer
Crossed: Badlands #58 (Fatal Fantasy Cover) 2014-07-30July 30, 2014 Avatar $3.99 Writer
Crossed: Badlands #57 (Torture Cover) 2014-07-16July 16, 2014 Avatar $3.99 Writer
Crossed: Badlands #57 2014-07-16July 16, 2014 Avatar $3.99 Writer
Crossed: Badlands #57 (Wrap Cover) 2014-07-16July 16, 2014 Avatar $3.99 Writer
Crossed: Badlands #57 (Fatal Fantasy Cover) 2014-07-16July 16, 2014 Avatar $3.99 Writer
Green Lantern: New Guardians #33 2014-07-16July 16, 2014 DC Comics $2.99 Writer
Harbinger #25 (Frison Cover) 2014-07-16July 16, 2014 Valiant $4.99 Writer
Harbinger #25 (Suayan Cover) 2014-07-16July 16, 2014 Valiant $4.99 Writer
The Spread #1 2014-07-09July 9, 2014 Image Comics $3.50 Writer
Superboy Vol. 4: Blood And Steel 2014-07-02July 2, 2014 DC Comics $14.99 Writer
Dead Body Road 2014-06-25June 25, 2014 Image Comics $14.99 Writer
Green Lantern: New Guardians #32 2014-06-18June 18, 2014 DC Comics $2.99 Writer
Dead Body Road #6 2014-05-28May 28, 2014 Image Comics $2.99 Writer
Green Lantern: New Guardians #31 2014-05-21May 21, 2014 DC Comics $2.99 Writer
In the Dark: A Horror Anthology 2014-05-07May 7, 2014 IDW Publishing $49.99 Writer
Green Lantern: New Guardians Annual #2 2014-04-30April 30, 2014 DC Comics $4.99 Writer
Dead Body Road #5 2014-04-23April 23, 2014 Image Comics $2.99 Writer
Green Lantern: New Guardians #30 2014-04-16April 16, 2014 DC Comics $2.99 Writer
Dead Body Road #4 2014-03-26March 26, 2014 Image Comics $2.99 Writer
Green Lantern: New Guardians #29 2014-03-19March 19, 2014 DC Comics $2.99 Writer
Dead Body Road #3 2014-02-26Feb. 26, 2014 Image Comics $2.99 Writer
Green Lantern: New Guardians #28 2014-02-19Feb. 19, 2014 DC Comics $2.99 Writer
Dead Body Road #2 2014-01-22Jan. 22, 2014 Image Comics $2.99 Writer
Green Lantern: New Guardians #27 2014-01-22Jan. 22, 2014 DC Comics $2.99 Writer
Shadowman Vol. 3: Deadside Blues 2014-01-01Jan. 1, 2014 Valiant $14.99 Writer
Green Lantern: New Guardians #26 2013-12-18Dec. 18, 2013 DC Comics $2.99 Writer
Dead Body Road #1 2013-12-11Dec. 11, 2013 Image Comics $2.99 Writer
Green Lantern: New Guardians #25 2013-11-20Nov. 20, 2013 DC Comics $2.99 Writer
Superboy #25 2013-11-13Nov. 13, 2013 DC Comics $2.99 Writer
Shadowman Vol. 2: Darque Reckoning 2013-10-23Oct. 23, 2013 Valiant $14.99 Writer
Green Lantern: New Guardians #24 2013-10-16Oct. 16, 2013 DC Comics $2.99 Writer
Superboy #24 2013-10-09Oct. 9, 2013 DC Comics $2.99 Writer
A+X #12 2013-09-25Sept. 25, 2013 Marvel Comics $3.99 Writer
Shadowman #10 (De La Torre Cover) 2013-09-04Sept. 4, 2013 Valiant $3.99 Writer
Shadowman #10 (Perger Cover) 2013-09-04Sept. 4, 2013 Valiant $3.99 Writer
The Legend of Luther Strode Vol. 2 2013-09-04Sept. 4, 2013 Image Comics $17.99 Writer
Green Lantern: New Guardians #23 2013-08-21Aug. 21, 2013 DC Comics $2.99 Writer
Superboy #23 2013-08-14Aug. 14, 2013 DC Comics $2.99 Writer
Shadowman #9 2013-08-07Aug. 7, 2013 Valiant $3.99 Writer
The Legend of Luther Strode #6 2013-08-07Aug. 7, 2013 Image Comics $3.50 Writer
Superboy #22 2013-07-31July 31, 2013 DC Comics $2.99 Writer
Green Lantern: New Guardians #22 2013-07-17July 17, 2013 DC Comics $2.99 Writer
Shadowman #8 2013-07-03July 3, 2013 Valiant $3.99 Writer
Team 7 Vol. 1: Fight Fire With Fire 2013-07-03July 3, 2013 DC Comics $16.99 Writer
Green Lantern: New Guardians #21 2013-06-19June 19, 2013 DC Comics $2.99 Writer
Superboy #21 2013-06-12June 12, 2013 DC Comics $2.99 Writer
Shadowman #7 2013-06-05June 5, 2013 Valiant $3.99 Writer
The Legend of Luther Strode #5 2013-05-15May 15, 2013 Image Comics $3.50 Writer
Deathstroke #20 2013-05-08May 8, 2013 DC Comics $2.99 Writer
Superboy #20 2013-05-08May 8, 2013 DC Comics $2.99 Writer
Team 7 #8 2013-05-08May 8, 2013 DC Comics $2.99 Writer
Shadowman #0 (Evans Cover) 2013-05-01May 1, 2013 Valiant $3.99 Writer
Shadowman #1 (One Dollar Debut) 2013-05-01May 1, 2013 Valiant $1.00 Writer
Shadowman #0 (Johnson Cover) 2013-05-01May 1, 2013 Valiant $3.99 Writer
Shadowman Vol. 1: Birth Rites 2013-04-24April 24, 2013 Valiant $9.99 Writer
Hack/Slash Vol. 12 2013-04-17April 17, 2013 Image Comics $18.99 Writer
Deathstroke #19 2013-04-10April 10, 2013 DC Comics $2.99 Writer
Team 7 #7 2013-04-10April 10, 2013 DC Comics $2.99 Writer
Shadowman #6 (Zircher Cover) 2013-04-03April 3, 2013 Valiant $3.99 Writer
The Legend of Luther Strode #4 2013-03-27March 27, 2013 Image Comics $3.50 Writer
Shadowman #2 (2nd Printing) 2013-03-20March 20, 2013 Valiant $3.99 Writer
Deathstroke #18 2013-03-13March 13, 2013 DC Comics $2.99 Writer
Team 7 #6 2013-03-13March 13, 2013 DC Comics $2.99 Writer
Shadowman #5 2013-03-06March 6, 2013 Valiant $3.99 Writer
The Legend of Luther Strode #3 2013-02-27Feb. 27, 2013 Image Comics $3.50 Writer
Deathstroke #17 2013-02-13Feb. 13, 2013 DC Comics $2.99 Writer
Team 7 #5 2013-02-13Feb. 13, 2013 DC Comics $2.99 Writer
Shadowman #4 2013-02-06Feb. 6, 2013 Valiant $3.99 Writer
Deathstroke #16 2013-01-16Jan. 16, 2013 DC Comics $2.99 Writer
Team 7 #4 2013-01-16Jan. 16, 2013 DC Comics $2.99 Writer
Shadowman #3 2013-01-09Jan. 9, 2013 Valiant $3.99 Writer
The Legend of Luther Strode #2 2013-01-09Jan. 9, 2013 Image Comics $3.50 Writer
Deathstroke #15 2012-12-12Dec. 12, 2012 DC Comics $2.99 Writer
Team 7 #3 2012-12-12Dec. 12, 2012 DC Comics $2.99 Writer
Shadowman #2 2012-12-05Dec. 5, 2012 Valiant $3.99 Writer
The Legend of Luther Strode #1 2012-12-05Dec. 5, 2012 Image Comics $3.50 Writer
Team 7 #2 2012-11-14Nov. 14, 2012 DC Comics $2.99 Writer
Shadowman #1 2012-11-07Nov. 7, 2012 Valiant $3.99 Writer
Team 7 #1 2012-10-10Oct. 10, 2012 DC Comics Unknown Writer
Skullkickers #18 2012-09-26Sept. 26, 2012 Image Comics Unknown Writer
Team 7 #0 2012-09-12Sept. 12, 2012 DC Comics Unknown Writer
Hack/Slash #17 (Moore & Sobreiro Cover) 2012-07-04July 4, 2012 Image Comics Unknown Writer
Hack/Slash #17 (Seeley Cover) 2012-07-04July 4, 2012 Image Comics Unknown Writer
Hack/Slash #16 (Hoang & Zub Cover) 2012-06-06June 6, 2012 Image Comics Unknown Writer
Hack/Slash #16 (Browne Cover) 2012-06-06June 6, 2012 Image Comics Unknown Writer
The Strange Talent of Luther Strode Vol. 1 2012-04-11April 11, 2012 Image Comics Unknown Writer
The Strange Talent of Luther Strode #6 2012-03-21March 21, 2012 Image Comics Unknown Writer
The Strange Talent of Luther Strode #5 2012-02-01Feb. 1, 2012 Image Comics Unknown Writer
The Strange Talent of Luther Strode #4 2012-01-11Jan. 11, 2012 Image Comics Unknown Writer
The Strange Talent of Luther Strode #3 2011-12-07Dec. 7, 2011 Image Comics Unknown Writer
The Strange Talent of Luther Strode #2 2011-11-02Nov. 2, 2011 Image Comics Unknown Writer
The Strange Talent of Luther Strode #1 2011-10-05Oct. 5, 2011 Image Comics Unknown Writer